[[{"header":{"parameterUnit":"m.s-1","parameterCategory":1,"la1":30.2991,"la2":30.254,"lo1":-89.0895,"lo2":-89.0444,"dy":0.0017,"dx":0.0017,"nx":28,"ny":28,"refTime":"2024-06-23T03:00:00:Z","depth":0,"parameterNumber":2,"parameterNumberName":"U-component_of_WINDS"},"data":[0,0,0,0,0,0,0,0,0,0,0,0,0,0,0,0,0,0,0,0,0,0,0,0,0,0,0,0,0,0,0,0,0,0,0,0,0,0,0,0,0,0,0,0,0,0,0,0,0,0,0,0,0,0,0,0,0,0,-0.3241,-0.324,0,-0.3135,-0.3134,-0.3133,-0.307,-0.307,-0.3069,-0.3069,-0.2958,-0.2955,-0.2952,0,0,0,0,0,0,0,0,0,0,0,0,0,-0.3386,-0.3384,-0.3241,-0.3239,-0.3238,-0.3135,-0.3134,-0.3133,-0.307,-0.307,-0.3069,-0.3069,-0.2959,-0.2955,-0.2952,0,0,0,0,0,0,0,0,0,0,0,0,0,-0.3306,-0.3383,-0.3241,-0.3195,-0.3189,-0.3136,-0.3134,-0.3132,-0.307,-0.307,-0.3069,-0.3069,-0.296,-0.2956,-0.2952,-0.2935,0,0,-0.2939,-0.2938,0,0,0,0,0,0,0,0,-0.331,-0.3301,-0.3203,-0.3198,-0.3192,-0.3115,-0.3144,-0.3066,-0.307,-0.3115,-0.3069,-0.3069,-0.301,-0.3002,-0.2983,-0.293,-0.2925,-0.2939,-0.2936,-0.2935,-0.2934,0,0,0,0,0,0,0,-0.3316,-0.3305,-0.3199,-0.3201,-0.3195,-0.3178,-0.3167,-0.3129,-0.3066,-0.3111,-0.3106,-0.3095,-0.3007,-0.2987,-0.298,-0.2923,-0.2939,-0.2935,-0.2933,-0.2931,-0.2852,-0.2852,0,0,0,0,0,0,-0.3329,-0.331,-0.3202,-0.3196,-0.3251,-0.3176,-0.3163,-0.314,-0.3066,-0.3055,-0.3095,-0.3092,-0.2994,-0.2985,-0.2976,-0.2952,-0.2935,-0.2931,-0.2929,-0.2852,-0.2852,-0.2852,0,0,0,0,0,0,-0.3333,-0.332,-0.3206,-0.3251,-0.3236,-0.3174,-0.3149,-0.3138,-0.3118,-0.3055,-0.3043,-0.3087,-0.2994,-0.2981,-0.2946,-0.2947,-0.2929,-0.2925,-0.2851,-0.2852,-0.2852,-0.2904,0,0,0,0,0,0,-0.3337,-0.3322,-0.3315,-0.3252,-0.3234,-0.3179,-0.3149,-0.3137,-0.3112,-0.3107,-0.3043,-0.3032,-0.2992,-0.2952,-0.2942,-0.2941,-0.2922,-0.2851,-0.2852,-0.2852,-0.2902,-0.2906,-0.291,0,0,0,0,0,-0.3343,-0.3333,-0.3315,-0.3303,-0.3224,-0.318,-0.3169,-0.3124,-0.3112,-0.3105,-0.3064,-0.3034,-0.2949,-0.2949,-0.2937,-0.2935,-0.2851,-0.2851,-0.2852,-0.29,-0.2905,-0.291,0,0,0,0,0,0,-0.3397,-0.3324,-0.3303,-0.3273,-0.3234,-0.3169,-0.3158,-0.3131,-0.3093,-0.3089,-0.3034,-0.3021,-0.2991,-0.2959,-0.2961,-0.2916,-0.2896,-0.2895,-0.2937,-0.2942,-0.2946,-0.2954,-0.2919,0,0,0,0,0,-0.3406,-0.3377,-0.3314,-0.3294,-0.3275,-0.322,-0.3199,-0.3168,-0.3124,-0.3106,-0.3063,-0.302,-0.2984,-0.2961,-0.2924,-0.2897,-0.2883,-0.289,-0.2894,-0.2898,-0.2897,-0.2881,-0.2884,-0.2855,-0.2855,-0.2855,0,0,-0.3423,-0.338,-0.3364,-0.3303,-0.3269,-0.3239,-0.3206,-0.3176,-0.3153,-0.3101,-0.3066,-0.3033,-0.2981,-0.2951,-0.2935,-0.2924,-0.2902,-0.2899,-0.2902,-0.2899,-0.2882,-0.2885,-0.2887,-0.2855,-0.2855,-0.2855,0,0,-0.344,-0.3404,-0.3384,-0.335,-0.3299,-0.3263,-0.3258,-0.3198,-0.3174,-0.3138,-0.3099,-0.3071,-0.3009,-0.2975,-0.2949,-0.2955,-0.2926,-0.2944,-0.2965,-0.295,-0.2952,-0.2954,-0.2956,-0.2958,-0.2943,-0.2943,-0.2944,0,-0.3468,-0.3422,-0.3376,-0.3349,-0.3323,-0.3277,-0.3255,-0.3224,-0.3163,-0.3146,-0.3135,-0.3058,-0.302,-0.2981,-0.2982,-0.2963,-0.2956,-0.2951,-0.2956,-0.2957,-0.2958,-0.296,-0.2961,-0.2946,-0.2946,-0.2945,-0.2945,0,-0.3459,-0.3428,-0.3418,-0.3362,-0.3335,-0.3311,-0.326,-0.3239,-0.3211,-0.3176,-0.314,-0.3093,-0.3047,-0.3035,-0.3007,-0.2992,-0.2987,-0.2967,-0.2946,-0.2964,-0.2965,-0.2965,-0.295,-0.2949,-0.2948,-0.2947,0,0,-0.3506,-0.3426,-0.3423,-0.3397,-0.3338,-0.3313,-0.3286,-0.3242,-0.3225,-0.3184,-0.3161,-0.3111,-0.3092,-0.3063,-0.303,-0.3018,-0.3026,-0.2998,-0.2996,-0.3006,-0.3008,-0.3024,-0.3025,-0.3007,-0.3007,-0.3007,-0.3012,0,-0.3514,-0.3466,-0.3424,-0.3391,-0.3362,-0.3318,-0.3295,-0.3256,-0.3223,-0.3194,-0.3157,-0.3122,-0.31,-0.3082,-0.3068,-0.3028,-0.3026,-0.3027,-0.2984,-0.2983,-0.2998,-0.3025,-0.3042,-0.3049,-0.3012,-0.3012,-0.3012,0,-0.3517,-0.348,-0.3444,-0.3389,-0.3375,-0.3356,-0.3312,-0.3284,-0.3239,-0.3216,-0.3185,-0.3152,-0.3122,-0.3105,-0.3063,-0.3065,-0.3045,-0.3023,-0.3022,-0.3016,-0.2999,-0.302,-0.3051,-0.3052,-0.3012,-0.3012,-0.3012,0,-0.3555,-0.3496,-0.3468,-0.3447,-0.3381,-0.3369,-0.3341,-0.3295,-0.3272,-0.3234,-0.3218,-0.3176,-0.3153,-0.3122,-0.3078,-0.307,-0.3041,-0.302,-0.3021,-0.3022,-0.3016,-0.3017,-0.3044,-0.3004,-0.3004,-0.3004,-0.3003,0,-0.3568,-0.3548,-0.3484,-0.3467,-0.3443,-0.3396,-0.3373,-0.3341,-0.3302,-0.3277,-0.3236,-0.3213,-0.3156,-0.3127,-0.3092,-0.3063,-0.3053,-0.3033,-0.3024,-0.3037,-0.304,-0.3023,-0.3021,-0.3004,-0.3004,-0.3004,-0.3004,0,-0.3607,-0.3563,-0.3529,-0.3471,-0.3456,-0.3441,-0.339,-0.3371,-0.3337,-0.3306,-0.3296,-0.3242,-0.3205,-0.3159,-0.3106,-0.3083,-0.3058,-0.3044,-0.3074,-0.3069,-0.3072,-0.3073,-0.3089,-0.3089,-0.3049,-0.305,-0.305,0,-0.3618,-0.3602,-0.3543,-0.3524,-0.3497,-0.3467,-0.3443,-0.3396,-0.3373,-0.3321,-0.3309,-0.3269,-0.3235,-0.3179,-0.3134,-0.3094,-0.3079,-0.3088,-0.3073,-0.3087,-0.308,-0.3081,-0.308,-0.3091,-0.3092,-0.3093,-0.3093,0,-0.3643,-0.3623,-0.3591,-0.3552,-0.3525,-0.3491,-0.3455,-0.3442,-0.3387,-0.3363,-0.3326,-0.33,-0.3248,-0.321,-0.3165,-0.3135,-0.3105,-0.3098,-0.3096,-0.3109,-0.3127,-0.3118,-0.3084,-0.3098,-0.3098,-0.3097,-0.3097,-0.3097,-0.3669,-0.3653,-0.3609,-0.3575,-0.3543,-0.3511,-0.3491,-0.3455,-0.3424,-0.3379,-0.3352,-0.3316,-0.3272,-0.3209,-0.3181,-0.3151,-0.314,-0.3137,-0.3136,-0.3137,-0.3141,-0.3133,-0.3143,-0.3143,-0.3143,-0.3142,-0.3142,0,-0.3692,-0.3662,-0.3631,-0.3584,-0.3557,-0.3532,-0.3492,-0.3471,-0.344,-0.3402,-0.337,-0.3328,-0.3291,-0.3244,-0.3204,-0.319,-0.3175,-0.3181,-0.3181,-0.3175,-0.3153,-0.3159,-0.3193,-0.3193,-0.3193,-0.3193,-0.3193,-0.3193,-0.3701,-0.3673,-0.3648,-0.3604,-0.3573,-0.3539,-0.3518,-0.3489,-0.3458,-0.3413,-0.3383,-0.3353,-0.3312,-0.3268,-0.3233,-0.322,-0.3207,-0.3217,-0.32,-0.3181,-0.3176,-0.3172,-0.3177,-0.3215,-0.3215,-0.3225,-0.3225,-0.3225]},{"header":{"parameterUnit":"m.s-1","parameterCategory":1,"la1":30.2991,"la2":30.254,"lo1":-89.0895,"lo2":-89.0444,"dy":0.0017,"dx":0.0017,"nx":28,"ny":28,"refTime":"2024-06-23T03:00:00:Z","depth":0,"parameterNumber":3,"parameterNumberName":"V-component_of_WINDS"},"data":[0,0,0,0,0,0,0,0,0,0,0,0,0,0,0,0,0,0,0,0,0,0,0,0,0,0,0,0,0,0,0,0,0,0,0,0,0,0,0,0,0,0,0,0,0,0,0,0,0,0,0,0,0,0,0,0,0,0,2.8019,2.8019,0,2.8027,2.8027,2.8028,2.8061,2.8062,2.8063,2.8064,2.807,2.8069,2.8069,0,0,0,0,0,0,0,0,0,0,0,0,0,2.8029,2.8029,2.8019,2.8019,2.8019,2.8027,2.8027,2.8028,2.8061,2.8062,2.8063,2.8064,2.807,2.807,2.8069,0,0,0,0,0,0,0,0,0,0,0,0,0,2.803,2.8029,2.8019,2.8037,2.8039,2.8027,2.8027,2.8028,2.8061,2.8062,2.8063,2.8064,2.807,2.807,2.8069,2.804,0,0,2.8066,2.8066,0,0,0,0,0,0,0,0,2.803,2.8029,2.8034,2.8036,2.8037,2.8044,2.8034,2.8032,2.8061,2.8052,2.8064,2.8065,2.806,2.806,2.8059,2.804,2.8041,2.8066,2.8066,2.8065,2.8065,0,0,0,0,0,0,0,2.803,2.8029,2.8022,2.8034,2.8036,2.8044,2.8045,2.8033,2.805,2.8053,2.8056,2.8056,2.8062,2.806,2.806,2.8041,2.8066,2.8065,2.8065,2.8065,2.7997,2.7996,0,0,0,0,0,0,2.8027,2.8029,2.8022,2.8022,2.8036,2.8043,2.8044,2.8041,2.805,2.8052,2.8055,2.8058,2.8061,2.8061,2.806,2.8026,2.8065,2.8064,2.8064,2.7998,2.7997,2.7995,0,0,0,0,0,0,2.8027,2.8026,2.8022,2.8026,2.8026,2.8041,2.8037,2.8041,2.8039,2.8052,2.8054,2.8051,2.8062,2.8061,2.8045,2.8027,2.8064,2.8063,2.8,2.7998,2.7996,2.7958,0,0,0,0,0,0,2.8028,2.8026,2.8016,2.8026,2.8026,2.8006,2.8036,2.804,2.8038,2.8041,2.8048,2.805,2.8063,2.8046,2.8044,2.8026,2.8063,2.8002,2.7999,2.7997,2.7961,2.7955,2.795,0,0,0,0,0,2.8028,2.8005,2.8015,2.8014,2.8014,2.8005,2.8005,2.8021,2.8036,2.8026,2.8034,2.805,2.8029,2.8044,2.8042,2.8024,2.8003,2.8,2.7997,2.7963,2.7956,2.795,0,0,0,0,0,0,2.7992,2.8006,2.8018,2.7998,2.8,2.8011,2.7998,2.8013,2.801,2.8013,2.8032,2.8033,2.8013,2.8017,2.8033,2.7996,2.8019,2.8015,2.7994,2.7987,2.7981,2.798,2.8062,0,0,0,0,0,2.7982,2.7974,2.7987,2.7968,2.7969,2.7983,2.798,2.7992,2.7995,2.7996,2.8002,2.8004,2.7997,2.7993,2.7988,2.7962,2.7963,2.7948,2.7943,2.7938,2.7935,2.792,2.7913,2.7986,2.7986,2.7986,0,0,2.796,2.7967,2.7961,2.7961,2.7964,2.7955,2.7984,2.7973,2.7967,2.7994,2.7978,2.7983,2.7986,2.7964,2.7955,2.7967,2.7915,2.7935,2.7931,2.793,2.7916,2.7909,2.7903,2.7984,2.7984,2.7985,0,0,2.7916,2.7921,2.7905,2.7908,2.7913,2.7922,2.7918,2.7927,2.7932,2.7917,2.7936,2.7928,2.7917,2.7918,2.7917,2.7873,2.7887,2.7871,2.7841,2.7826,2.7821,2.7815,2.7798,2.7792,2.7867,2.7867,2.7867,0,2.7888,2.7877,2.7895,2.7883,2.7882,2.7907,2.789,2.7891,2.7894,2.7891,2.7905,2.7891,2.7895,2.7873,2.7862,2.7861,2.7856,2.7869,2.782,2.7815,2.7811,2.7794,2.7788,2.7865,2.7865,2.7865,2.7866,0,2.7842,2.7833,2.7819,2.7821,2.7819,2.7804,2.7819,2.7814,2.7826,2.7834,2.7817,2.7823,2.7819,2.7815,2.7826,2.7794,2.7801,2.7817,2.784,2.7801,2.7786,2.778,2.7862,2.7863,2.7863,2.7864,0,0,2.7774,2.7787,2.7781,2.7782,2.7789,2.7782,2.7768,2.7765,2.7759,2.776,2.7748,2.7738,2.7753,2.7751,2.7763,2.775,2.7713,2.7768,2.7768,2.7756,2.7675,2.7662,2.7654,2.7723,2.7722,2.7721,2.7674,0,2.7731,2.7709,2.7724,2.7699,2.7691,2.7714,2.7702,2.7704,2.7711,2.7705,2.7712,2.7704,2.7725,2.7724,2.7713,2.772,2.7697,2.7724,2.771,2.771,2.7707,2.7647,2.7632,2.7588,2.7669,2.7668,2.7667,0,2.7677,2.7676,2.7649,2.7657,2.7654,2.7643,2.7641,2.7634,2.7637,2.7643,2.7641,2.7656,2.7642,2.7666,2.7646,2.7664,2.7659,2.7662,2.7661,2.7658,2.7685,2.7641,2.7574,2.7567,2.7658,2.7659,2.766,0,2.7628,2.762,2.7603,2.7603,2.7612,2.7604,2.7607,2.7611,2.7607,2.7605,2.7603,2.7599,2.7596,2.7592,2.7604,2.7621,2.7582,2.7607,2.7585,2.7584,2.7574,2.7574,2.7504,2.7574,2.7574,2.7574,2.7574,0,2.7577,2.7559,2.7581,2.757,2.7551,2.7569,2.7549,2.7555,2.7558,2.7548,2.7569,2.7559,2.7577,2.7568,2.7578,2.7559,2.7558,2.7561,2.7564,2.7558,2.7558,2.7554,2.7557,2.7573,2.7573,2.7573,2.7574,0,2.7518,2.7532,2.7515,2.7525,2.7527,2.7512,2.7521,2.751,2.7519,2.7506,2.7504,2.7517,2.7508,2.7521,2.7513,2.752,2.7492,2.75,2.7491,2.7493,2.7469,2.747,2.7392,2.7382,2.7461,2.746,2.746,0,2.7483,2.7471,2.748,2.7475,2.7477,2.7469,2.7466,2.7483,2.7479,2.748,2.7469,2.7462,2.7457,2.7441,2.7449,2.7443,2.745,2.7423,2.7449,2.7443,2.7447,2.7447,2.7444,2.7417,2.7416,2.7415,2.7415,0,2.742,2.7428,2.7423,2.7419,2.7415,2.7413,2.7413,2.7408,2.7426,2.742,2.7411,2.7407,2.7399,2.739,2.7386,2.7388,2.7403,2.7407,2.7401,2.7394,2.7388,2.7389,2.7475,2.7408,2.7409,2.7409,2.7409,2.741,2.7371,2.736,2.7365,2.7358,2.736,2.7359,2.735,2.7357,2.7351,2.7346,2.7357,2.7345,2.7347,2.7343,2.7343,2.7333,2.7344,2.7336,2.7334,2.7331,2.7326,2.7392,2.7333,2.7333,2.7333,2.7333,2.7333,0,2.7307,2.7311,2.7305,2.7304,2.7299,2.7315,2.7316,2.7309,2.7299,2.73,2.7295,2.7284,2.7276,2.7283,2.7276,2.7267,2.7273,2.7264,2.7264,2.7264,2.7318,2.7323,2.7259,2.7259,2.7259,2.7259,2.7259,2.7259,2.7273,2.7255,2.7263,2.7246,2.725,2.7239,2.7238,2.7237,2.7237,2.7225,2.7218,2.7224,2.7227,2.722,2.7213,2.7216,2.7211,2.7199,2.7203,2.7253,2.726,2.7267,2.7272,2.7198,2.7198,2.715,2.715,2.7149]}]]